| time (UTC) | temp F | wind direction | speed MPH | gust MPH | rain 1hr in | rain 24hr in | rain mn in | humidity % | barometer mb |
| 20260504230050 | 76 | 187 | 17.0 | 23.0 | 0.00 | 0.01 | 0.01 | 72 | 1011.0 |
| 20260504224548 | 76 | 169 | 17.0 | 24.0 | 0.00 | 0.01 | 0.01 | 72 | 1011.2 |
| 20260504223054 | 76 | 171 | 19.0 | 25.0 | 0.00 | 0.01 | 0.01 | 71 | 1011.3 |
| 20260504221549 | 76 | 164 | 14.0 | 21.0 | 0.00 | 0.01 | 0.01 | 71 | 1011.4 |
| 20260504220048 | 77 | 182 | 13.0 | 19.0 | 0.00 | 0.01 | 0.01 | 70 | 1011.5 |
| 20260504214554 | 77 | 191 | 12.0 | 20.0 | 0.00 | 0.01 | 0.01 | 67 | 1011.7 |
| 20260504213048 | 77 | 191 | 13.0 | 19.0 | 0.00 | 0.01 | 0.01 | 67 | 1012.0 |
| 20260504211550 | 77 | 182 | 13.0 | 20.0 | 0.00 | 0.01 | 0.01 | 68 | 1012.1 |
| 20260504210059 | 77 | 213 | 11.0 | 18.0 | 0.00 | 0.01 | 0.01 | 64 | 1012.4 |
| 20260504204606 | 77 | 196 | 14.0 | 19.0 | 0.00 | 0.01 | 0.01 | 62 | 1012.4 |
| 20260504203101 | 77 | 199 | 14.0 | 21.0 | 0.00 | 0.01 | 0.01 | 63 | 1012.8 |
| 20260504201550 | 77 | 191 | 12.0 | 16.0 | 0.00 | 0.01 | 0.01 | 66 | 1013.3 |
| 20260504200049 | 78 | 200 | 9.0 | 16.0 | 0.00 | 0.01 | 0.01 | 62 | 1013.3 |
| 20260504194549 | 77 | 196 | 11.0 | 17.0 | 0.00 | 0.01 | 0.01 | 62 | 1013.7 |
| 20260504193057 | 77 | 215 | 12.0 | 19.0 | 0.00 | 0.01 | 0.01 | 61 | 1013.7 |
| 20260504191557 | 77 | 201 | 12.0 | 21.0 | 0.00 | 0.01 | 0.01 | 61 | 1013.9 |
| 20260504190054 | 77 | 207 | 12.0 | 14.0 | 0.00 | 0.01 | 0.01 | 59 | 1014.1 |
| 20260504184549 | 76 | 188 | 10.0 | 16.0 | 0.00 | 0.01 | 0.01 | 60 | 1014.2 |
| 20260504183047 | 76 | 195 | 12.0 | 17.0 | 0.00 | 0.01 | 0.01 | 62 | 1014.4 |
| 20260504181553 | 75 | 200 | 13.0 | 20.0 | 0.00 | 0.01 | 0.01 | 61 | 1014.6 |
| 20260504180106 | 75 | 209 | 11.0 | 15.0 | 0.00 | 0.01 | 0.01 | 62 | 1014.7 |
| 20260504174547 | 75 | 205 | 12.0 | 20.0 | 0.00 | 0.01 | 0.01 | 63 | 1015.1 |
| 20260504173109 | 74 | 200 | 13.0 | 20.0 | 0.00 | 0.01 | 0.01 | 63 | 1015.2 |
| 20260504171551 | 74 | 192 | 10.0 | 16.0 | 0.00 | 0.01 | 0.01 | 63 | 1015.3 |
| 20260504081558 | 65 | 173 | 8.0 | 12.0 | 0.01 | 0.02 | 0.01 | 73 | 1016.8 |
| 20260504044552 | 66 | 195 | 8.0 | 12.0 | 0.00 | 0.01 | 0.01 | 72 | 1018.5 |
| 20260504043056 | 66 | 165 | 9.0 | 14.0 | 0.00 | 0.01 | 0.01 | 72 | 1018.7 |
| 20260504041554 | 66 | 198 | 11.0 | 15.0 | 0.00 | 0.01 | 0.01 | 71 | 1018.6 |
| 20260504040055 | 67 | 171 | 12.0 | 17.0 | 0.00 | 0.01 | 0.01 | 71 | 1018.7 |
| 20260504034556 | 67 | 180 | 12.0 | 17.0 | 0.00 | 0.01 | 0.01 | 68 | 1018.6 |
| 20260504033045 | 68 | 192 | 13.0 | 19.0 | 0.00 | 0.01 | 0.01 | 70 | 1018.6 |
| 20260504031546 | 68 | 187 | 11.0 | 17.0 | 0.00 | 0.01 | 0.01 | 73 | 1018.5 |
| 20260504030044 | 69 | 177 | 12.0 | 18.0 | 0.00 | 0.01 | 0.01 | 68 | 1018.3 |
| 20260504024555 | 69 | 169 | 11.0 | 17.0 | 0.00 | 0.02 | 0.01 | 68 | 1018.4 |
| 20260504023049 | 70 | 175 | 12.0 | 17.0 | 0.00 | 0.02 | 0.01 | 66 | 1018.3 |
| 20260504021552 | 70 | 190 | 13.0 | 17.0 | 0.00 | 0.02 | 0.01 | 63 | 1018.1 |
| 20260504020049 | 71 | 193 | 12.0 | 16.0 | 0.00 | 0.02 | 0.01 | 62 | 1018.0 |
| 20260504014546 | 72 | 187 | 13.0 | 18.0 | 0.00 | 0.02 | 0.01 | 64 | 1018.1 |
| 20260504013101 | 72 | 201 | 14.0 | 18.0 | 0.00 | 0.02 | 0.01 | 60 | 1017.8 |
| 20260504011548 | 73 | 201 | 15.0 | 20.0 | 0.00 | 0.02 | 0.01 | 58 | 1017.9 |
| 20260504010047 | 75 | 210 | 15.0 | 19.0 | 0.00 | 0.02 | 0.01 | 58 | 1017.8 |
| 20260504004548 | 75 | 205 | 10.0 | 13.0 | 0.00 | 0.02 | 0.01 | 54 | 1017.8 |
| 20260504003054 | 76 | 201 | 10.0 | 14.0 | 0.00 | 0.02 | 0.01 | 52 | 1017.8 |
| 20260504001548 | 76 | 193 | 10.0 | 14.0 | 0.00 | 0.02 | 0.01 | 49 | 1018.0 |
| 20260504000053 | 76 | 194 | 10.0 | 15.0 | 0.00 | 0.02 | 0.01 | 50 | 1018.1 |
| 20260503234548 | 77 | 196 | 11.0 | 14.0 | 0.00 | 0.02 | 0.01 | 49 | 1018.0 |
| 20260503233053 | 77 | 190 | 10.0 | 15.0 | 0.00 | 0.02 | 0.01 | 44 | 1017.9 |
| 20260503231548 | 78 | 209 | 9.0 | 12.0 | 0.00 | 0.02 | 0.01 | 47 | 1017.9 |